Location: Caltech
(34.1382°N, 118.1253°W)
Time: 10:22:54
(UTC-07:00)

Sapphire - Visible Passes

Search period start: 25 September 2016 00:00
Search period end: 05 October 2016 00:00
Orbit: 787 x 794 km, 67.1° (Epoch: 23 September)

Date Brightness Start Highest point End Pass type
(mag) Time Alt. Az. Time Alt. Az. Time Alt. Az.
25 Sep ? 04:14:40 12° SSE 04:18:12 22° ESE 04:22:15 10° ENE visible
25 Sep ? 05:56:10 10° SW 06:01:16 42° WNW 06:06:24 10° NNE visible
26 Sep ? 03:46:05 13° SE 03:47:44 15° ESE 03:50:42 10° ENE visible
26 Sep ? 05:26:54 20° SW 05:30:34 59° WNW 05:35:56 10° NNE visible
27 Sep ? 04:58:07 44° SSW 04:59:55 83° WNW 05:05:22 10° NNE visible
28 Sep ? 04:29:11 70° ESE 04:29:18 70° ESE 04:34:43 10° NNE visible
28 Sep ? 06:10:05 10° W 06:13:13 15° NW 06:16:23 10° NNW visible
29 Sep ? 04:00:07 39° ENE 04:00:07 39° ENE 04:03:56 10° NE visible
29 Sep ? 05:40:54 19° WNW 05:42:22 21° NW 05:46:25 10° N visible
30 Sep ? 03:30:57 21° ENE 03:30:57 21° ENE 03:33:02 10° NE visible
30 Sep ? 05:11:43 28° NW 05:11:43 28° NW 05:16:13 10° N visible
01 Oct ? 03:01:41 11° ENE 03:01:41 11° ENE 03:01:56 10° NE visible
01 Oct ? 04:42:27 31° NNW 04:42:27 31° NNW 04:45:53 10° N visible
02 Oct ? 04:13:06 25° N 04:13:06 25° N 04:15:26 10° NNE visible
03 Oct ? 03:43:40 17° NNE 03:43:40 17° NNE 03:44:53 10° NNE visible
03 Oct ? 05:24:25 10° NW 05:24:25 10° NW 05:24:28 10° NW visible
04 Oct ? 03:14:11 10° NNE 03:14:11 10° NNE 03:14:15 10° NNE visible
04 Oct ? 04:54:56 12° NNW 04:54:56 12° NNW 04:55:40 10° NNW visible
